Vorticity
nan nan nan nan nan nan nan nan nan nan nan nan nan nan nan nan nan nan nan nan nan nan nan nan nan nan nan nan nan nan nan nan nan nan nan nan nan nan nan nan nan nan nan
nan 8 7 5 6 5 5 5 5 5 6 6 6 6 6 4 4 4 5 5 5 6 5 4 6 8 7 5 4 5 4 5 5 6 5 0 1 3 3 4 6 8 nan
nan 7 6 7 6 5 5 5 6 5 4 5 6 6 5 5 5 5 5 5 5 6 6 5 6 6 5 4 5 5 5 5 5 3 -0 1 2 5 4 4 5 7 nan
nan 7 8 7 4 5 6 5 6 6 5 5 4 5 6 5 5 5 5 5 6 5 5 5 6 6 3 3 5 5 4 4 4 2 2 7 6 4 4 4 6 5 nan
nan 7 8 8 5 5 4 6 6 5 5 5 5 5 5 6 6 5 5 6 6 5 6 7 6 4 3 4 4 4 4 4 3 2 7 8 7 7 5 4 4 5 nan
nan 9 10 8 5 5 5 5 5 5 5 6 6 5 6 6 6 5 6 7 6 6 7 7 5 3 4 4 5 5 4 3 1 4 6 7 8 9 6 5 5 6 nan
nan 8 11 9 7 6 5 4 4 5 6 6 6 7 4 6 5 6 7 7 7 8 8 6 5 3 4 6 5 4 3 3 2 6 6 5 10 8 6 6 5 5 nan
nan 8 11 11 7 5 5 5 4 5 3 6 7 7 4 7 6 5 6 7 7 8 8 6 5 4 5 5 3 4 5 3 4 5 6 8 14 7 5 5 5 6 nan
nan 8 9 13 8 7 11 9 10 18 14 13 16 8 6 3 6 6 6 5 8 8 5 7 5 5 7 5 4 4 6 4 4 5 6 10 11 6 6 5 6 6 nan
nan 8 7 9 10 12 14 13 13 14 8 8 13 15 13 2 4 5 6 7 5 5 7 7 5 8 9 5 4 5 3 1 6 6 5 14 10 7 6 5 5 6 nan
nan 7 8 8 7 7 11 15 11 4 4 1 -2 1 -1 8 11 5 6 8 4 5 6 5 8 11 7 2 2 3 -1 2 6 7 12 14 6 6 6 6 6 5 nan
nan 6 7 7 6 6 7 9 7 3 2 2 5 1 -1 8 11 8 8 8 5 3 2 3 8 5 -0 0 3 2 3 7 6 7 13 12 7 6 6 5 5 5 nan
nan 7 8 7 7 5 5 5 7 8 7 8 6 6 4 4 9 8 4 5 8 2 2 3 2 4 5 5 6 5 8 7 6 8 12 11 8 5 6 6 5 5 nan
nan 7 8 8 7 6 6 7 8 7 7 8 8 6 7 8 8 7 6 7 6 6 7 4 6 9 7 7 7 7 7 6 6 9 12 11 9 6 6 6 5 5 nan
nan 8 9 7 6 6 6 7 8 7 8 9 10 6 8 9 7 7 7 5 6 10 8 6 7 7 8 7 8 6 5 7 7 7 12 11 8 8 6 5 6 5 nan
nan 9 7 7 7 7 6 7 6 7 8 9 8 8 8 8 8 7 7 6 7 7 9 9 6 6 8 7 7 7 6 6 7 7 9 10 9 8 7 6 5 5 nan
nan 10 8 8 6 7 8 7 7 8 8 8 10 9 7 10 7 6 6 7 6 7 8 7 7 8 8 11 8 6 6 7 8 8 7 8 10 9 8 8 6 6 nan
nan 8 8 9 8 6 7 7 8 9 8 10 13 14 13 10 9 6 6 7 7 7 7 6 6 8 8 9 8 7 7 7 8 7 7 7 7 9 11 9 8 7 nan
nan 8 9 7 8 6 6 7 9 8 7 9 9 14 18 9 7 7 7 9 8 8 7 5 7 8 7 9 9 8 8 8 8 7 7 7 7 6 10 11 8 8 nan
nan 9 10 7 7 6 6 6 7 6 7 8 9 9 9 9 7 6 8 10 8 6 7 9 7 5 10 8 9 8 7 7 8 8 8 6 8 7 7 8 8 11 nan
nan 9 10 7 5 5 7 7 7 7 7 7 8 9 8 11 8 5 7 8 8 9 9 5 7 8 8 7 5 6 8 11 9 7 8 8 7 7 7 6 7 9 nan
nan 4 8 8 6 5 7 7 9 10 9 9 8 9 8 10 10 8 7 7 7 7 8 7 5 6 10 8 5 8 7 7 10 9 7 10 8 8 8 7 6 6 nan
nan 6 6 9 8 5 5 5 7 7 10 10 9 9 9 8 8 11 8 6 7 8 7 7 7 7 5 9 9 4 8 9 9 10 9 8 9 8 8 9 8 7 nan
nan 5 10 10 6 7 6 6 6 4 6 9 10 10 11 10 6 7 11 10 5 8 9 7 8 8 8 6 4 8 11 11 8 8 11 11 10 8 7 8 10 9 nan
nan 7 8 8 7 8 7 7 7 7 7 9 12 11 7 7 8 10 10 9 8 8 11 8 7 9 9 7 5 8 6 8 9 11 9 9 12 13 10 9 9 10 nan
nan nan nan nan nan nan nan nan nan nan nan nan nan nan nan nan nan nan nan nan nan nan nan nan nan nan nan nan nan nan nan nan nan nan nan nan nan nan nan nan nan nan nan
CAPE
969 1070 1329 1466 1464 1402 1262 1344 1314 1354 1486 1617 1646 1598 1526 1489 1428 1333 1233 1282 1329 1406 1082 936 1436 1258 906 908 777 736 823 733 651 629 650 587 474 350 368 374 482 289 672
967 1205 1320 1545 1562 1408 1304 1466 1450 1483 1570 1641 1641 1608 1529 1448 1362 1262 1314 1384 1394 1402 945 1018 1510 1305 866 848 911 755 648 515 485 529 557 417 387 384 390 339 499 421 624
1237 1328 1326 1495 1646 1623 1491 1603 1689 1669 1687 1625 1588 1540 1471 1384 1310 1269 1302 1362 1346 1347 1139 1043 1007 1009 881 863 748 664 560 437 342 252 92 12 102 275 293 374 495 388 435
1359 1387 1328 1512 1647 1744 1657 1668 1750 1842 1779 1673 1565 1491 1393 1350 1303 1274 1301 1296 1313 1329 1193 1138 1107 929 717 698 525 387 349 229 138 48 0 7 24 95 56 50 107 197 243
1276 1437 1376 1534 1603 1742 1729 1727 1771 1784 1724 1604 1527 1519 1382 1267 1251 1345 1300 1247 1304 1318 1194 1045 894 733 600 391 310 255 147 61 16 0 0 10 9 34 31 20 13 13 13
993 1478 1532 1455 1532 1764 1785 1764 1743 1756 1545 1504 1473 1463 1505 1623 1573 1490 1303 1248 1240 1165 1267 1069 680 462 390 291 144 85 37 0 0 0 0 8 7 26 11 13 20 20 16
861 1280 1561 1374 1501 1729 1844 1795 1681 1690 1511 1382 1419 1438 1636 1701 1697 1563 1350 1354 1249 1161 1195 944 608 365 348 144 66 17 0 0 0 0 0 1 3 15 10 14 14 12 11
818 1005 1386 1523 1486 1636 1718 1410 1393 1533 1488 1392 1469 1547 1638 1574 1494 1394 1319 1140 978 914 707 544 323 296 119 50 6 0 0 0 0 0 0 0 22 14 20 15 8 15 13
693 822 1040 1466 1679 1364 1282 1254 877 875 910 1070 977 704 849 923 1154 1157 1202 1075 948 657 517 358 257 43 89 23 0 0 0 0 0 0 0 8 22 30 18 13 12 12 9
522 520 696 737 387 140 344 805 472 144 73 45 183 296 282 221 517 765 809 886 745 531 386 222 45 22 64 0 0 0 0 0 0 0 0 14 27 25 25 21 18 18 16
335 289 199 270 126 71 171 500 401 105 0 15 139 88 6 7 172 304 400 401 474 250 209 80 10 28 18 0 0 0 0 0 0 0 0 34 29 29 28 23 23 15 12
221 9 18 40 30 15 113 66 128 0 7 7 4 5 2 4 111 106 242 304 249 177 108 34 9 14 0 0 0 0 0 0 0 0 0 39 27 26 24 21 11 12 15
45 0 0 4 40 2 1 1 1 4 17 1 0 0 0 4 101 95 108 116 88 90 5 0 0 0 0 0 0 0 0 0 0 0 7 36 32 24 22 20 16 11 6
4 0 1 13 34 33 2 1 1 0 1 0 0 0 4 4 44 100 100 16 3 0 0 0 0 0 0 0 0 0 0 0 0 0 8 31 32 18 23 22 14 9 10
13 0 0 0 14 21 1 1 1 0 1 1 0 0 4 23 74 73 36 6 0 0 0 0 0 0 0 0 0 0 0 0 0 0 0 22 29 30 22 17 12 10 7
2 1 0 0 48 47 9 1 1 0 1 0 3 0 39 42 86 22 11 0 0 0 0 0 0 0 0 0 0 0 0 0 0 0 0 3 18 31 24 11 9 8 11
15 0 0 0 30 53 13 1 2 3 2 0 2 0 17 92 72 13 0 0 0 0 0 0 0 0 0 0 0 0 0 0 0 0 0 0 0 6 19 15 5 5 6
0 0 1 0 0 20 1 1 1 1 0 4 24 38 8 75 33 2 0 0 0 0 0 0 0 0 0 0 0 0 0 0 0 0 0 0 0 0 1 7 11 5 3
0 0 1 1 0 1 5 2 1 0 0 0 1 1 24 5 0 0 0 0 0 0 0 0 0 0 0 0 0 0 0 0 0 0 0 0 0 0 0 0 1 3 6
0 0 0 0 1 1 3 1 1 1 1 0 0 0 0 7 0 0 0 0 0 0 0 0 0 0 0 0 0 0 0 0 0 0 0 0 0 0 0 0 0 0 0
0 0 1 0 2 1 2 3 1 1 1 0 0 0 0 12 0 0 0 0 0 0 0 0 0 0 0 0 0 0 0 0 0 0 0 0 0 0 0 0 0 0 0
0 0 0 0 2 1 2 2 5 4 1 0 0 0 0 0 6 0 0 0 0 0 0 0 0 0 0 0 0 0 0 0 0 0 0 0 0 0 0 0 0 0 0
0 0 0 0 0 1 0 0 0 0 1 1 1 1 0 0 0 2 0 0 0 0 2 0 0 0 0 0 0 0 0 2 0 0 0 0 0 0 0 0 0 0 0
0 0 0 1 0 0 0 0 0 0 0 0 1 1 2 0 0 0 5 0 0 12 11 3 0 0 0 0 0 0 0 0 0 0 0 0 0 0 0 0 0 0 0
0 0 1 0 0 0 0 0 0 0 0 0 0 1 2 1 0 0 0 0 0 14 16 10 1 0 1 1 0 0 0 0 0 0 0 0 0 0 0 0 0 0 0
0 0 0 0 0 0 0 0 0 0 0 2 5 3 3 1 0 0 0 0 0 4 2 2 2 0 0 4 0 0 0 0 0 0 0 0 0 0 0 0 0 0 0